This demonstration page uses our WeatherBlox Daily Observations layout. Learn more.

Left ArrowRight Arrow

Hourly Observations for November 14, 2016

Temp ( °F °C ) Dew Point ( °F °C ) Humidity (%) Winds ( mph kmh ) Pressure ( in mb ) Visibility ( mi km ) Precip ( " mm )
12:15 am 00:15 Clear 45 7.1 34 1.1 66 66 N 7 11 30.06 1018 10 16 N/A
12:35 am 00:35 Clear 42 5.6 33 0.6 71 71 N 3 6 30.09 1019 10 16 N/A
12:55 am 00:55 Clear 41 4.9 33 0.5 73 73 NW 5 7 30.09 1019 10 16 N/A
1:15 am 01:15 Clear 41 5.1 33 0.5 72 72 NW 7 11 30.09 1019 10 16 N/A
1:35 am 01:35 Clear 41 4.9 33 0.6 74 74 NW 7 11 30.09 1019 10 16 N/A
1:55 am 01:55 Clear 42 5.8 35 1.4 74 74 WNW 8 13 30.09 1019 10 16 N/A
2:15 am 02:15 Partly Cloudy 42 5.4 34 1.3 75 75 NW 7 11 30.09 1019 10 16 N/A
2:35 am 02:35 Clear 44 6.4 36 2 74 74 NW 8 13 30.06 1018 10 16 N/A
2:55 am 02:55 Clear 46 7.5 35 1.8 67 67 NW 9 15 30.09 1019 10 16 N/A
3:15 am 03:15 Clear 45 7.1 35 1.5 68 68 NW 8 13 30.09 1019 10 16 N/A
3:35 am 03:35 Clear 43 6.1 34 0.9 70 70 NW 7 11 30.09 1019 10 16 N/A
3:55 am 03:55 Clear 41 4.8 33 0.5 74 74 NW 6 9 30.09 1019 10 16 N/A
4:15 am 04:15 Clear 40 4.3 32 0.2 75 75 NW 8 13 30.09 1019 10 16 N/A
4:35 am 04:35 Clear 40 4.3 33 0.3 75 75 NW 7 11 30.09 1019 10 16 N/A
4:55 am 04:55 Clear 39 4.1 32 0.1 75 75 NW 8 13 30.09 1019 10 16 N/A
5:15 am 05:15 Clear 39 3.8 32 undefined 77 77 NW 6 9 30.12 1020 10 16 N/A
5:35 am 05:35 Clear 38 3.1 32 -0.1 80 80 NW 5 7 30.15 1021 10 16 N/A
5:55 am 05:55 Clear 37 3 32 -0.1 80 80 NW 5 7 30.15 1021 10 16 N/A
6:15 am 06:15 Clear 37 2.9 32 -0.1 81 81 NW 6 9 30.15 1021 10 16 N/A
6:35 am 06:35 Clear 37 3 32 -0.2 80 80 NW 7 11 30.15 1021 10 16 N/A
6:55 am 06:55 Clear 37 2.8 31 -0.5 79 79 WNW 6 9 30.15 1021 10 16 N/A
7:15 am 07:15 Partly Cloudy 36 2.3 31 -0.8 80 80 W 5 7 30.15 1021 10 16 N/A
7:35 am 07:35 Cloudy 39 3.8 32 0.1 77 77 WNW 7 11 30.15 1021 10 16 N/A
7:55 am 07:55 Cloudy 40 4.6 32 0.1 73 73 W 8 13 30.15 1021 10 16 N/A
8:15 am 08:15 Partly Cloudy 42 5.4 33 0.5 71 71 W 6 9 30.15 1021 10 16 N/A
8:35 am 08:35 Sunny 44 6.5 34 1.2 69 69 W 6 9 30.15 1021 10 16 N/A
8:55 am 08:55 Sunny 45 7.2 35 1.7 68 68 N N/A 30.12 1020 10 16 N/A
9:15 am 09:15 Sunny 47 8.6 36 2.3 65 65 WNW 5 7 30.12 1020 10 16 N/A
9:35 am 09:35 Sunny 47 8.5 37 2.8 68 68 WNW 5 7 30.12 1020 10 16 N/A
9:55 am 09:55 Sunny 52 11 37 2.6 56 56 WNW 6 9 30.09 1019 10 16 N/A
10:15 am 10:15 Sunny 52 11.3 36 2.3 54 54 W 6 9 30.09 1019 10 16 N/A
10:35 am 10:35 Sunny 54 12 36 2.1 51 51 W 6 9 30.09 1019 10 16 N/A
10:55 am 10:55 Sunny 56 13.2 36 2.3 48 48 W 5 7 30.09 1019 10 16 N/A
11:15 am 11:15 Sunny 58 14.4 35 1.7 42 42 N N/A 30.03 1017 10 16 N/A
11:35 am 11:35 Sunny 59 15 34 1.2 39 39 W 5 7 30.03 1017 10 16 N/A
11:55 am 11:55 Sunny 60 15.7 34 1.2 38 38 SW 5 7 30.03 1017 10 16 N/A
12:15 pm 12:15 Sunny 62 16.8 33 0.7 34 34 WSW 6 9 30.00 1016 10 16 N/A
12:35 pm 12:35 Sunny 63 17.4 33 0.6 32 32 WSW 6 9 29.97 1015 10 16 N/A
12:55 pm 12:55 Sunny 64 17.7 32 0.2 31 31 WSW 7 11 29.97 1015 10 16 N/A
1:15 pm 13:15 Sunny 64 18 32 undefined 30 30 WSW 9 15 29.97 1015 10 16 N/A
1:35 pm 13:35 Sunny 65 18.4 32 0.2 29 29 WSW 7 11 29.94 1014 10 16 N/A
1:55 pm 13:55 Sunny 65 18.5 33 0.3 30 30 SW 10 17 29.94 1014 10 16 N/A
2:15 pm 14:15 Sunny 65 18.6 33 0.5 30 30 SW 9 15 29.91 1013 10 16 N/A
2:35 pm 14:35 Sunny 66 19 33 0.5 29 29 SSW 9 15 29.91 1013 10 16 N/A
2:55 pm 14:55 Sunny 66 18.7 33 0.5 30 30 SW 8 13 29.91 1013 10 16 N/A
3:15 pm 15:15 Sunny 65 18.5 33 0.5 30 30 SSW 7 11 29.91 1013 10 16 N/A
3:35 pm 15:35 Sunny 67 19.4 33 0.5 28 28 SW 5 7 29.88 1012 10 16 N/A
3:55 pm 15:55 Sunny 67 19.2 32 undefined 28 28 WSW 5 7 29.88 1012 10 16 N/A
4:15 pm 16:15 Sunny 65 18.6 31 -0.3 28 28 WSW 5 7 29.91 1013 10 16 N/A
4:35 pm 16:35 Sunny 64 17.6 31 -0.6 29 29 SW 3 6 29.91 1013 10 16 N/A
4:55 pm 16:55 Sunny 63 17 31 -0.5 31 31 N N/A 29.91 1013 10 16 N/A
5:15 pm 17:15 Sunny 62 16.5 31 -0.3 32 32 SSW 3 6 29.91 1013 10 16 N/A
5:35 pm 17:35 Clear 59 15.2 31 -0.5 34 34 SW 5 7 29.94 1014 10 16 N/A
5:55 pm 17:55 Clear 56 13.4 31 -0.3 39 39 SSW 5 7 29.94 1014 10 16 N/A
6:15 pm 18:15 Clear 47 8.4 31 -0.3 55 55 N N/A 30.00 1016 10 16 N/A
6:35 pm 18:35 Clear 45 7.1 32 undefined 61 61 ENE 3 6 30.00 1016 10 16 N/A
6:55 pm 18:55 Clear 44 6.8 31 -0.5 60 60 N N/A 30.03 1017 10 16 N/A
7:15 pm 19:15 Clear 48 8.7 32 0.2 56 56 N N/A 30.03 1017 10 16 N/A
7:35 pm 19:35 Clear 49 9.2 33 0.4 54 54 N N/A 30.00 1016 10 16 N/A
7:55 pm 19:55 Clear 46 7.5 33 0.6 62 62 ESE 3 6 30.03 1017 10 16 N/A
8:15 pm 20:15 Clear 45 7 33 0.7 65 65 SE 6 9 30.00 1016 10 16 N/A
8:35 pm 20:35 Clear 46 7.5 34 1 64 64 SSE 5 7 30.00 1016 10 16 N/A
8:55 pm 20:55 Clear 46 7.6 33 0.6 62 62 S 3 6 30.00 1016 10 16 N/A
9:15 pm 21:15 Clear 46 7.5 33 0.5 62 62 SSE 6 9 30.00 1016 10 16 N/A
9:35 pm 21:35 Clear 45 7 33 0.7 65 65 S 5 7 30.00 1016 10 16 N/A
9:55 pm 21:55 Clear 45 7.2 34 0.9 65 65 SSE 5 7 30.03 1017 10 16 N/A
10:15 pm 22:15 Clear 43 6 33 0.7 69 69 S 3 6 30.03 1017 10 16 N/A
10:35 pm 22:35 Clear 45 7.3 35 1.6 67 67 S 5 7 30.03 1017 10 16 N/A
10:55 pm 22:55 Clear 46 7.5 35 1.6 67 67 S 5 7 30.00 1016 10 16 N/A
11:15 pm 23:15 Clear 46 7.5 35 1.5 66 66 SSW 5 7 30.00 1016 10 16 N/A
11:35 pm 23:35 Clear 45 7.2 34 1.2 66 66 S 5 7 30.00 1016 10 16 N/A
11:55 pm 23:55 Clear 45 7 34 1.1 66 66 S 3 6 30.00 1016 10 16 N/A

Powered by AerisWeather